Wind_Speed
7 4 3 4 4 6 8 10 9 9 7 5 4 4 5 4 2 2 4 3 4 4 5 7 7 6 9 7 7 12 15 15 13 14 15 14 15 15 16 15 15 15 14 11 10 11 10 10 9 8 7 7 6 5 4 3 3 2 2 4 4 5 7 8 9 10 10 9 8 6 5 5 5 5 5 5 6 5 3 2 4 6 7 7 7 7
4 3 5 6 7 9 8 8 9 9 8 6 4 4 5 5 2 3 3 2 1 1 3 7 7 5 9 7 7 10 10 9 11 13 13 14 15 14 15 15 14 13 12 10 10 11 11 10 9 9 8 7 6 7 6 5 4 4 2 2 2 2 4 6 6 7 9 8 6 5 3 0 3 4 6 7 7 6 4 2 3 4 6 8 8 7
2 5 6 6 6 6 3 2 2 4 5 4 3 3 4 4 1 2 1 1 1 1 2 5 3 4 7 6 7 9 9 10 13 15 14 15 15 14 14 14 13 13 12 12 12 12 12 11 10 9 9 9 9 9 8 7 6 5 4 3 2 1 1 4 4 5 6 7 6 4 3 2 2 2 3 6 7 8 7 6 6 5 6 7 8 10
2 2 3 4 4 2 2 3 4 4 3 2 3 3 4 4 3 2 1 1 2 1 0 4 2 4 5 5 6 8 11 13 15 17 16 16 16 15 14 13 13 14 13 13 13 12 12 12 11 10 10 10 10 9 9 8 8 7 7 7 5 4 3 3 5 5 5 6 7 6 6 6 6 4 2 3 5 5 5 6 8 7 7 8 8 10
2 2 5 5 5 4 3 3 3 2 2 3 5 4 5 5 2 1 2 2 4 3 1 2 3 2 5 5 4 6 10 12 13 15 16 16 15 15 14 15 15 15 14 14 14 14 13 13 13 13 12 11 10 10 11 11 10 11 10 9 8 6 5 3 3 4 4 5 6 8 9 8 7 6 6 5 3 1 3 4 6 7 7 7 7 8
3 4 5 4 4 4 3 3 3 2 3 3 4 4 6 8 1 5 4 2 2 3 2 3 2 3 5 6 5 5 7 8 10 12 13 14 14 14 15 15 14 15 15 15 15 15 15 15 14 13 13 12 12 13 13 14 13 12 12 11 9 8 7 6 4 2 2 3 4 6 7 7 6 5 6 6 7 7 8 9 11 12 12 10 9 9
2 4 3 3 3 4 1 2 3 1 3 2 2 5 4 6 5 7 5 1 1 3 2 6 5 3 2 4 4 5 5 6 8 8 10 13 13 14 15 15 15 15 15 15 16 16 16 16 16 15 15 14 14 15 14 14 13 13 13 12 11 10 9 8 7 5 2 1 1 1 1 1 2 2 1 2 5 7 7 8 9 11 12 12 13 14
3 5 4 3 1 0 0 1 5 6 3 1 4 7 7 4 0 3 4 3 2 2 2 4 5 4 3 2 3 6 6 5 6 6 8 12 14 15 15 14 15 15 15 16 17 17 18 18 18 18 17 16 15 15 14 13 14 13 14 13 12 11 11 10 9 8 6 4 3 3 2 3 3 3 3 3 4 5 5 5 6 7 9 11 13 16
3 5 5 4 1 1 1 1 4 7 2 1 6 7 5 4 4 4 1 2 3 3 3 5 5 4 3 2 3 5 5 4 5 6 7 10 13 14 15 14 14 15 15 16 17 18 18 19 20 20 19 18 16 16 15 15 15 14 14 14 13 12 12 12 11 9 9 8 6 6 5 5 5 5 4 4 4 4 4 4 5 5 6 7 8 10
2 4 5 4 3 1 2 4 4 4 1 1 6 7 4 2 2 3 1 2 3 4 6 7 6 3 3 1 2 3 1 3 5 6 6 11 14 13 14 14 14 14 15 16 17 17 18 19 20 20 20 19 19 18 17 16 16 15 15 14 14 13 13 13 12 11 10 9 8 7 7 7 7 6 5 4 4 4 4 4 4 5 5 6 6 6
1 3 5 5 4 4 4 5 3 1 2 2 3 4 3 3 1 1 1 1 2 6 9 7 7 5 3 1 2 2 4 3 5 7 7 11 13 13 14 14 14 14 14 15 16 17 18 19 20 20 21 21 20 20 19 18 18 17 17 17 16 16 15 14 14 13 12 11 10 10 10 9 8 8 6 5 5 5 5 5 4 4 4 5 5 6
2 3 3 4 8 8 4 4 1 2 1 1 1 1 2 2 2 0 1 2 3 7 7 6 8 7 5 1 4 4 7 8 6 8 7 10 12 12 13 13 14 14 14 15 16 17 18 19 20 21 21 21 20 20 20 20 20 20 19 19 19 18 17 17 16 15 14 14 14 13 12 12 11 11 10 9 9 8 8 7 6 5 5 4 5 5
3 3 3 2 9 12 6 3 1 1 1 1 2 1 1 1 1 1 2 3 5 6 2 4 9 6 3 2 6 7 8 9 9 10 10 11 12 12 12 13 14 14 15 16 17 18 19 20 20 21 21 21 21 21 21 21 21 21 20 20 20 21 20 20 19 18 17 16 16 16 15 15 15 14 13 13 12 12 11 10 9 7 6 6 5 5
1 2 5 3 4 11 8 2 2 2 2 1 1 1 2 2 1 3 4 2 4 4 1 3 7 4 1 4 6 7 8 10 12 14 14 14 14 13 13 13 13 14 15 16 17 18 19 21 21 21 22 22 21 21 21 21 21 21 20 20 20 21 21 20 20 20 20 19 19 19 18 18 18 17 17 16 15 15 14 13 12 11 10 9 8 7
1 1 4 4 3 7 6 4 2 2 3 3 1 1 0 1 1 2 2 1 1 2 1 3 3 2 0 2 4 7 10 11 13 14 14 15 14 13 13 13 13 14 14 15 16 18 19 20 21 21 21 22 21 21 21 21 21 20 20 20 20 20 20 20 20 20 20 21 21 20 19 20 20 20 20 19 18 18 17 16 15 14 13 12 10 9
1 2 1 2 3 6 5 3 4 3 3 3 2 0 1 2 1 2 1 1 1 2 2 2 1 2 2 4 4 7 9 10 11 12 13 13 12 12 13 13 13 13 13 14 16 17 18 19 20 20 21 21 21 21 21 21 21 20 20 20 20 20 20 19 19 20 20 20 19 19 19 19 19 19 19 19 19 20 19 18 17 16 15 14 12 11
1 2 1 0 3 6 5 3 5 5 1 2 3 1 2 1 1 2 4 2 1 1 2 3 2 2 3 3 4 6 7 7 8 10 11 11 11 12 12 12 12 12 13 13 14 16 18 18 19 20 20 20 21 21 21 21 21 20 20 20 19 19 19 19 19 19 19 19 18 18 18 18 19 18 19 18 18 19 19 18 18 17 16 16 14 13
1 0 2 1 2 5 6 3 4 10 7 1 1 3 3 1 1 1 3 0 1 4 3 4 5 3 3 1 1 3 5 6 7 8 9 10 11 12 11 11 11 11 11 12 13 15 17 17 18 18 19 19 19 20 20 20 20 20 20 19 19 19 19 19 19 19 18 18 18 18 18 18 18 19 19 18 18 18 17 17 17 17 16 16 16 15
2 0 1 3 1 3 7 3 1 9 13 5 1 4 3 1 1 0 1 1 3 5 3 4 6 2 1 1 1 4 7 7 6 6 7 9 10 11 10 10 10 10 10 11 13 15 16 16 16 17 17 17 18 18 18 18 18 18 19 19 19 19 19 19 19 18 18 18 18 18 18 18 18 18 18 18 18 18 17 17 17 16 16 16 16 15
3 1 1 3 4 1 4 4 1 5 9 7 5 4 3 1 1 1 1 1 1 3 3 4 5 0 3 2 2 3 8 7 6 6 5 8 10 9 9 9 8 8 9 10 12 13 14 14 15 15 15 16 16 16 17 17 17 18 18 18 18 18 18 18 18 18 18 18 18 18 18 18 18 18 18 18 18 18 18 18 17 17 16 16 16 16
3 1 1 3 5 2 2 4 3 3 5 5 5 4 4 3 1 1 1 0 0 2 3 3 3 0 1 3 4 3 9 6 6 6 6 9 10 9 9 8 7 8 8 8 9 10 11 12 12 13 13 14 14 15 15 16 17 17 17 18 18 18 19 19 19 19 19 19 19 19 19 19 19 18 18 18 18 18 18 18 18 17 17 17 16 16
3 2 1 3 4 3 3 2 3 4 4 3 3 3 4 3 2 2 2 1 3 2 1 1 3 1 1 3 4 3 6 6 8 10 8 9 10 9 8 7 7 7 7 7 7 8 9 10 10 11 12 12 13 14 15 15 16 17 18 18 19 19 20 20 20 20 20 20 20 20 20 20 20 20 19 19 19 18 19 18 18 19 18 17 17 17
2 1 1 1 2 4 4 2 3 5 4 5 5 4 3 3 3 1 2 1 3 2 1 0 3 1 2 4 4 6 7 8 12 13 11 11 10 8 8 6 6 6 5 5 6 6 7 8 9 10 11 12 13 13 14 15 16 17 18 18 19 19 20 21 21 21 21 22 22 22 22 21 21 21 21 20 20 20 20 20 20 20 19 19 18 18
3 0 1 1 2 4 4 2 3 3 2 5 5 5 4 3 2 2 2 1 1 3 1 1 3 1 2 4 3 8 9 10 11 12 12 11 9 8 7 6 4 4 3 3 4 4 6 7 8 9 11 12 13 14 15 15 16 17 18 18 19 20 20 21 21 22 22 22 23 23 23 23 22 22 22 22 22 22 21 21 21 21 21 21 20 20
3 1 1 1 1 1 1 1 2 2 2 3 2 3 4 4 2 1 1 1 1 3 3 3 4 1 0 3 3 5 5 6 8 9 9 9 9 8 7 5 4 2 2 2 2 3 4 5 7 9 11 12 13 14 15 16 17 18 18 19 20 20 21 22 22 23 23 23 24 24 24 24 24 24 24 24 24 23 23 23 23 23 23 23 22 22
1 1 2 1 2 2 1 2 0 2 3 1 1 1 2 3 1 0 1 1 1 1 1 3 3 1 2 4 1 2 2 4 6 7 6 6 8 8 7 5 4 2 1 1 2 3 4 6 7 9 10 12 13 15 16 17 18 19 19 20 21 21 22 22 23 24 24 24 25 25 25 25 25 26 26 26 25 25 25 25 25 25 25 24 24 24
1 2 3 3 3 1 2 2 1 3 2 2 2 3 3 1 2 3 2 2 2 2 4 3 1 3 2 2 1 2 2 3 5 8 7 7 8 9 8 7 6 4 3 3 4 4 5 6 7 8 10 12 13 15 16 18 19 20 21 21 22 22 23 23 24 24 25 25 26 26 26 26 26 26 26 26 27 27 27 27 26 26 26 26 26 26
1 2 3 2 3 3 2 1 2 2 1 4 5 5 4 4 2 3 3 4 0 3 5 3 3 5 2 1 3 4 4 4 7 11 13 12 12 12 10 9 8 6 5 4 5 6 6 7 7 8 10 12 14 15 17 18 19 20 21 22 23 23 24 24 25 25 25 26 26 26 26 26 26 26 26 27 27 27 27 28 28 28 28 28 28 27
2 1 2 1 2 1 1 1 1 1 2 4 5 6 5 5 5 4 6 6 3 4 7 5 7 10 7 6 7 7 8 9 11 15 17 15 13 12 10 8 7 6 5 4 5 7 7 7 8 9 11 13 15 17 18 19 20 20 21 22 23 24 24 25 26 26 26 26 26 26 26 26 26 27 27 27 27 27 28 28 28 29 29 29 29 29
1 2 1 1 1 3 3 1 1 2 4 6 6 6 6 6 7 8 7 7 8 10 10 10 13 13 9 8 8 7 7 9 12 13 13 13 11 10 9 7 6 6 6 5 6 7 8 8 9 10 12 15 17 18 19 20 20 21 21 22 22 23 24 25 25 26 26 26 26 26 27 27 26 27 27 28 28 28 29 29 29 30 30 30 30 30
3 3 2 1 0 3 3 3 3 3 4 7 8 8 8 7 8 9 8 8 8 10 11 11 13 12 6 3 3 6 7 6 7 3 6 10 8 9 8 8 7 7 6 6 7 8 8 8 9 11 15 18 19 20 21 21 21 22 22 22 23 23 24 24 25 25 26 26 26 26 26 26 26 27 27 28 29 29 30 30 31 31 32 32 32 32
3 2 1 2 1 2 2 3 3 4 5 8 11 11 10 9 7 7 6 6 7 8 9 9 9 7 1 3 2 5 5 4 5 3 2 5 8 9 8 8 8 7 7 7 8 8 8 9 11 14 18 20 21 21 22 22 23 23 23 24 24 24 25 25 25 25 25 26 26 26 26 26 27 27 27 28 29 29 30 31 32 33 34 34 34 34
2 1 1 2 1 2 2 3 4 4 5 5 7 8 8 9 8 7 6 7 8 8 7 6 6 5 1 0 2 4 2 3 4 3 4 5 8 11 9 7 8 9 9 9 9 9 9 10 13 17 20 21 22 22 23 24 25 25 25 26 26 26 26 25 25 25 25 25 26 26 26 27 27 27 28 28 29 29 29 30 32 33 34 35 36 36
1 1 1 2 1 2 4 5 2 3 2 3 3 2 2 4 5 6 6 6 7 6 6 6 6 5 5 6 4 2 2 3 3 4 4 4 6 10 9 8 10 11 11 11 10 9 10 13 16 19 21 23 23 24 25 26 27 27 27 27 27 26 26 26 25 25 25 25 25 26 26 27 27 28 28 28 28 29 30 30 31 32 33 35 36 37
2 1 1 1 1 1 3 1 3 2 3 3 3 3 1 2 1 4 6 7 9 9 9 10 9 7 10 9 1 5 3 1 2 4 6 7 7 8 9 10 12 12 11 11 10 10 13 16 18 21 23 24 24 25 27 28 29 30 30 29 28 27 26 26 26 26 25 25 25 25 26 27 27 28 28 28 29 29 29 30 31 32 33 34 35 36
1 0 1 1 1 0 1 1 1 4 5 3 4 5 4 2 2 3 5 7 8 8 8 8 8 9 8 3 5 4 2 3 5 9 10 11 11 10 10 11 12 12 11 10 10 12 16 18 21 23 24 24 25 27 28 30 31 31 31 30 29 28 28 27 27 26 26 26 26 26 26 27 27 27 28 28 28 29 29 30 30 31 32 33 34 35
1 0 1 0 2 1 0 2 3 5 7 4 1 1 2 1 1 1 2 5 5 7 9 7 7 9 4 4 4 2 3 3 6 7 7 10 12 11 11 12 12 11 10 10 12 14 17 20 23 25 25 25 26 28 29 31 31 31 31 30 29 29 28 28 27 27 26 26 26 26 26 26 27 28 28 28 28 29 29 29 29 30 31 32 33 34
1 1 1 1 1 3 2 2 4 4 4 2 2 3 6 6 5 4 2 4 5 12 16 10 5 6 1 5 3 1 3 2 4 3 8 11 11 9 9 10 10 10 10 13 15 17 20 22 23 24 25 26 27 29 30 31 30 31 31 29 29 29 28 28 28 27 26 26 25 25 26 26 27 27 28 28 28 29 29 29 29 29 30 31 32 33
3 2 1 1 0 1 2 1 1 3 5 3 5 5 8 8 6 6 4 5 3 4 6 3 0 0 3 5 4 2 2 0 3 4 8 10 8 7 8 9 9 11 13 15 18 20 22 24 24 24 25 26 28 29 30 30 30 30 29 28 28 27 27 28 28 27 27 26 25 25 25 25 26 27 27 28 28 29 29 30 30 30 30 31 32 33
3 1 1 2 3 3 3 3 3 5 5 2 6 8 10 8 7 6 3 6 3 2 3 4 2 0 2 5 6 4 3 5 5 5 7 8 8 9 10 11 13 15 17 18 20 22 24 25 26 26 26 26 27 29 29 29 29 29 28 27 26 26 26 27 27 27 27 26 26 25 25 25 25 26 27 28 28 29 30 30 31 31 32 32 33 34
1 1 2 3 4 4 5 4 3 4 5 4 9 13 12 7 6 2 3 4 2 2 2 2 1 2 4 8 9 7 8 10 10 11 11 11 12 13 14 15 17 19 20 22 23 24 25 26 27 27 27 27 27 28 27 28 28 27 27 26 25 25 26 26 26 26 26 26 26 25 25 25 25 26 27 28 28 30 30 31 31 32 33 34 35 36
1 2 3 3 3 4 4 3 3 5 6 6 14 17 12 5 1 4 4 3 3 2 3 4 5 6 7 10 12 12 13 13 14 14 14 14 15 16 17 19 20 22 24 24 25 26 26 27 28 28 28 27 27 27 26 26 27 26 26 25 24 24 25 25 25 26 26 25 25 25 25 25 25 26 27 28 28 30 31 31 31 33 34 35 36 37
4 3 3 4 4 3 1 1 2 5 3 13 17 12 7 4 3 3 3 1 3 4 4 5 7 7 8 11 13 15 16 16 17 18 18 18 19 19 21 23 24 25 26 26 26 27 28 29 29 28 27 26 25 25 24 25 25 25 25 24 23 24 25 25 25 25 25 25 24 24 24 25 25 26 27 28 29 30 32 32 32 33 33 34 36 37
3 4 3 3 4 4 3 4 4 3 8 20 16 5 8 14 12 6 4 5 6 6 7 9 10 9 9 11 13 15 17 18 19 21 21 21 22 22 24 25 25 25 25 26 27 28 29 30 29 28 26 24 23 23 23 23 25 25 24 23 23 24 25 25 25 25 24 24 24 24 24 24 25 25 26 27 28 30 32 32 32 33 33 33 34 36
3 3 3 2 3 3 4 7 5 3 10 22 19 8 9 15 16 13 12 13 13 13 12 12 13 14 14 14 15 15 16 17 18 19 21 22 23 24 25 26 25 25 26 26 27 28 29 29 28 26 24 22 21 22 21 22 24 24 23 22 23 25 26 25 25 25 24 23 23 23 24 24 25 25 26 27 28 29 31 31 32 32 33 32 33 34
3 2 4 1 2 4 10 15 13 10 12 19 21 18 15 16 18 18 19 19 19 18 16 15 16 18 18 18 18 18 19 19 19 20 22 23 24 25 25 26 26 26 26 26 27 27 27 27 26 25 23 21 19 20 20 21 22 24 23 22 23 24 25 25 25 25 24 24 23 23 24 25 26 26 26 26 27 28 29 29 30 31 31 31 32 33
3 5 4 1 1 2 5 6 6 7 10 12 15 18 19 20 21 22 22 22 21 21 20 20 20 20 20 19 19 20 21 21 21 23 24 24 25 25 25 26 26 26 26 26 25 25 26 25 25 24 23 21 18 18 19 20 21 22 22 22 23 24 24 24 25 25 24 24 24 24 24 26 26 26 26 26 26 27 28 28 28 30 30 30 30 31
3 6 4 3 4 4 6 8 9 11 13 14 17 19 20 20 22 22 21 21 20 19 19 19 19 19 19 19 19 20 21 21 22 23 24 24 25 25 25 25 26 25 25 25 24 24 24 24 24 23 23 21 18 18 19 20 20 21 21 22 22 23 24 24 24 25 24 24 24 24 24 25 26 26 27 27 27 28 28 28 28 28 29 28 28 30
6 5 4 3 4 5 10 15 17 17 18 19 20 20 19 19 19 19 18 18 17 17 17 18 18 19 19 20 20 21 22 22 22 23 23 24 24 24 25 25 25 24 24 24 23 24 23 23 23 23 22 21 19 18 19 19 19 20 20 21 22 23 23 23 24 24 24 23 24 24 24 25 25 26 27 28 28 28 28 27 27 28 29 28 27 28
7 3 3 2 2 5 8 10 9 6 8 10 9 10 12 12 13 15 16 16 17 17 18 18 19 20 20 21 21 22 23 23 22 22 23 24 24 24 24 23 23 23 23 23 23 22 22 22 22 22 21 20 19 19 20 20 19 18 19 20 22 22 23 23 24 23 23 22 23 23 24 25 25 26 27 28 28 29 29 27 26 26 28 29 28 26
15 11 8 7 6 6 7 8 9 8 8 9 9 10 12 12 13 15 17 18 18 18 18 19 20 21 22 22 22 22 23 23 22 22 23 23 23 23 22 22 22 22 22 22 21 21 21 22 22 22 21 20 19 19 20 20 19 18 18 20 21 22 22 22 23 23 22 22 23 23 24 25 26 26 27 27 27 29 31 31 29 26 25 26 27 26
Wind_Direction
177 177 217 210 219 217 215 216 227 255 287 332 346 324 306 297 323 57 100 160 176 183 205 208 222 178 135 132 119 107 103 98 97 93 85 81 75 70 68 63 58 54 44 38 44 49 49 50 52 51 50 45 38 37 30 17 350 325 294 264 246 232 232 234 234 232 229 234 248 260 246 214 196 189 192 213 223 229 260 19 50 62 81 115 167 204
180 204 237 224 229 236 229 223 225 239 264 297 315 327 309 296 341 64 107 142 98 76 210 214 224 168 124 121 108 100 93 82 87 94 90 86 79 71 67 63 60 53 45 46 49 52 53 53 55 56 58 56 48 46 41 36 33 25 9 309 277 232 217 223 230 229 223 218 222 247 271 93 124 152 161 169 176 179 180 133 81 58 55 71 69 46
217 238 244 247 249 248 259 326 285 249 257 282 288 279 283 279 287 66 78 130 98 91 245 260 239 134 109 102 89 82 81 73 76 84 85 84 78 70 65 61 59 54 46 46 48 50 52 52 55 58 59 59 55 54 54 53 53 52 48 32 15 29 156 181 194 211 212 198 192 207 209 157 129 117 112 128 133 137 148 136 113 95 56 50 50 37
200 226 270 308 348 338 335 354 344 332 313 287 276 265 265 273 263 259 306 316 325 60 94 313 319 128 112 91 79 79 91 89 83 83 81 81 79 74 69 63 59 55 48 46 46 49 51 51 53 56 58 58 57 58 59 57 55 54 51 43 37 37 55 119 151 177 195 181 174 182 181 168 164 164 122 98 105 111 118 100 90 87 65 49 43 34
268 37 2 358 29 18 354 334 306 298 307 253 232 243 246 257 289 73 136 73 3 351 68 1 325 199 171 152 119 101 107 103 95 89 81 79 81 76 70 64 60 55 51 50 49 49 52 52 51 53 56 57 59 58 55 53 52 52 49 42 38 40 41 55 108 148 175 177 177 186 192 190 183 188 202 207 204 257 319 352 9 9 18 25 21 15
294 28 2 352 36 28 20 320 276 207 258 258 226 251 249 239 198 98 130 113 21 287 204 163 269 262 176 158 143 131 130 114 100 92 82 78 75 71 67 61 58 56 53 53 53 53 55 56 55 56 58 59 59 58 56 54 53 54 53 47 43 44 44 43 51 82 153 176 187 194 198 200 205 211 212 227 258 280 291 292 301 311 315 320 327 329
345 47 25 17 37 22 22 273 330 349 243 249 305 326 308 242 187 135 151 161 199 256 214 176 214 272 172 135 129 135 129 111 101 89 82 79 72 69 66 62 59 56 54 54 55 57 58 59 58 58 59 60 61 60 60 59 57 57 56 51 46 47 48 48 47 42 44 110 163 190 189 205 235 260 260 280 297 300 299 290 279 280 284 292 299 303
354 36 39 40 78 66 261 249 360 355 277 221 336 346 8 355 286 142 174 202 240 294 320 204 217 264 251 136 132 136 123 118 112 95 87 82 78 75 70 65 61 57 56 55 54 56 58 60 60 60 60 62 64 64 63 63 60 58 56 53 49 48 50 48 48 46 41 43 49 54 51 31 13 6 360 342 329 323 317 304 283 271 269 273 279 285
2 32 19 2 37 158 345 324 355 352 327 85 351 344 13 19 10 10 250 221 274 284 264 225 211 253 254 133 137 145 136 155 133 111 103 90 83 81 74 68 63 59 57 57 55 56 58 62 63 63 65 67 68 67 66 65 62 60 59 57 53 50 52 50 47 47 46 47 48 48 52 50 41 30 16 357 337 324 316 308 298 290 279 270 266 265
58 46 18 11 22 13 342 322 328 353 341 23 354 343 350 5 13 6 304 226 268 255 243 221 187 215 246 150 159 164 204 215 146 112 95 89 83 79 75 70 64 60 58 58 60 59 60 64 66 68 70 71 71 70 69 69 67 65 63 59 56 53 52 52 49 48 49 48 48 47 48 50 47 41 29 13 355 338 326 316 304 293 284 278 272 261
117 73 50 52 17 330 309 302 269 225 305 322 8 352 328 307 241 176 243 234 254 247 241 214 181 196 223 131 99 95 342 322 131 116 99 93 85 79 75 69 63 61 59 61 64 65 66 68 70 72 73 71 72 72 72 71 69 67 66 63 60 57 56 55 52 50 50 49 47 46 44 43 40 34 26 15 3 358 351 341 336 326 307 293 283 277
85 60 58 59 27 6 323 306 264 174 337 10 81 338 288 265 232 174 246 203 218 246 240 190 182 204 217 181 56 51 17 21 86 112 111 102 91 83 77 70 65 63 63 64 64 65 67 68 70 71 71 70 71 72 71 69 69 67 67 66 64 62 60 59 57 54 53 53 51 49 46 44 39 32 27 23 18 15 13 9 3 351 334 321 305 292
81 41 12 35 35 21 347 297 56 93 37 120 177 216 236 200 155 185 210 197 222 249 268 166 188 206 212 85 60 57 42 43 72 95 104 105 97 90 82 74 70 65 62 61 61 62 62 62 64 65 65 65 65 65 65 65 65 65 64 64 64 61 59 60 60 58 57 57 56 54 51 49 46 41 37 34 30 26 22 19 16 10 360 350 334 318
121 36 8 353 14 11 359 347 62 39 356 329 178 160 203 215 227 217 206 205 233 248 301 180 193 201 136 79 61 63 64 63 75 87 96 100 97 93 87 78 72 65 60 57 57 59 59 57 58 60 59 59 58 59 59 59 59 60 60 60 60 59 57 58 58 57 58 58 57 56 55 54 52 49 46 43 41 38 32 27 25 22 19 15 7 358
197 199 6 2 344 358 14 44 33 329 314 310 295 119 234 281 272 236 192 182 293 306 289 209 196 231 167 93 72 79 82 78 82 89 94 93 92 90 83 75 67 62 58 55 55 56 57 57 56 56 56 54 53 53 54 54 53 54 54 54 55 55 53 53 53 53 53 54 55 55 55 55 54 51 49 48 48 45 41 37 35 32 30 28 24 18
122 129 2 25 30 11 18 26 1 331 288 308 325 182 358 12 320 280 286 240 268 358 300 225 133 41 85 107 105 98 92 92 96 98 97 94 90 83 75 68 64 59 56 54 54 55 56 56 55 53 53 51 49 48 48 48 47 47 48 47 48 48 47 47 47 47 47 47 48 48 49 50 50 49 49 49 49 47 45 43 41 39 36 34 32 29
100 88 323 95 67 43 27 5 12 17 280 285 1 15 293 307 134 288 292 252 186 257 238 206 177 99 113 118 105 105 104 105 106 103 101 95 85 78 71 66 63 60 56 53 52 54 54 54 53 50 49 47 45 44 43 43 42 41 41 41 42 42 42 41 41 41 41 42 42 42 42 42 41 41 40 40 42 42 41 41 42 42 41 39 36 35
78 311 333 340 86 49 19 353 42 26 9 325 347 345 316 274 109 323 282 283 255 259 237 203 205 184 163 146 68 126 127 116 115 108 103 97 88 81 74 70 67 62 58 54 51 53 52 51 50 47 46 44 42 40 39 38 38 36 35 34 34 34 34 33 33 33 33 33 33 33 33 33 32 31 30 29 30 32 32 34 36 36 38 38 37 37
5 325 348 330 310 48 21 8 94 9 4 17 334 335 360 49 18 323 218 274 271 256 260 229 219 200 106 71 57 165 143 121 122 116 108 105 95 89 83 75 70 63 59 55 51 51 50 48 46 43 41 39 37 36 34 33 32 31 31 29 27 27 27 25 25 25 25 24 25 24 23 23 23 22 21 20 20 20 20 23 25 26 28 30 31 31
318 164 155 309 302 336 29 27 34 344 349 5 6 359 23 3 305 297 210 359 288 254 281 253 223 131 43 22 341 156 135 126 135 126 109 101 95 96 96 88 81 73 65 60 53 49 47 44 41 38 35 32 31 29 26 26 24 24 23 21 21 20 18 18 17 16 16 16 16 15 14 14 14 13 12 11 11 10 9 10 12 14 16 18 19 20
323 100 147 310 328 345 60 37 33 14 345 355 17 23 7 335 312 327 300 85 29 276 286 277 248 185 59 350 339 107 123 131 141 123 108 107 103 102 103 99 96 84 72 66 59 51 46 41 36 33 30 26 24 21 19 18 16 16 15 13 12 11 9 9 9 8 7 6 6 5 4 4 4 3 3 2 1 1 1 0 0 1 4 5 6 7
349 39 349 324 359 47 86 38 13 25 17 20 25 10 360 355 359 311 273 43 22 317 264 284 275 273 73 335 340 74 111 124 129 121 119 121 116 109 107 105 101 90 77 69 59 49 44 37 30 27 22 18 15 14 13 10 8 7 7 6 5 3 3 2 0 0 360 359 357 356 356 356 355 354 354 353 353 352 352 352 352 351 351 353 354 356
2 21 311 328 46 79 102 83 25 23 44 72 54 19 17 20 40 96 241 359 4 329 32 101 245 268 340 309 349 47 63 87 115 125 128 127 123 120 115 108 100 91 77 63 49 38 33 27 22 17 11 10 8 6 5 3 2 1 359 359 358 356 356 355 354 353 352 352 351 350 349 348 347 347 346 344 344 344 345 344 344 344 343 342 344 346
358 69 218 151 89 85 96 84 38 19 47 79 56 28 38 47 74 132 209 207 302 288 359 264 255 269 308 304 27 65 68 81 106 124 130 131 134 135 131 126 115 95 75 54 34 22 15 10 8 4 1 1 0 359 358 356 355 354 352 351 350 349 349 348 347 346 345 345 344 343 343 342 341 341 340 339 339 338 338 338 337 337 336 335 335 336
358 91 49 111 145 108 80 43 10 356 20 57 69 59 71 77 66 277 231 130 253 236 174 211 257 182 285 312 37 83 87 99 115 128 138 142 145 147 145 143 142 124 86 48 11 355 351 350 353 354 354 354 353 352 351 350 349 348 346 345 343 342 342 340 340 339 338 338 337 337 337 337 336 335 335 334 334 334 333 333 332 332 331 330 329 329
15 60 26 128 186 235 202 156 201 337 347 19 98 105 95 98 109 293 2 71 233 261 149 224 256 279 321 327 14 115 126 131 132 137 153 159 155 161 163 158 163 184 190 329 324 323 326 331 340 346 347 347 347 346 344 343 343 342 340 339 338 336 335 334 334 333 332 332 331 331 332 331 331 331 331 331 330 330 329 329 328 328 327 326 324 324
84 55 39 96 136 165 157 148 33 18 339 287 309 318 308 325 134 128 95 217 195 1 315 254 334 357 328 332 292 215 191 190 169 162 174 180 173 175 179 180 191 211 228 270 295 299 306 312 322 333 339 341 341 341 340 338 336 336 335 333 333 332 330 329 328 328 327 327 326 326 326 326 327 327 327 327 327 326 326 325 325 324 324 323 322 321
125 53 18 70 93 111 144 113 22 32 290 264 287 297 294 310 300 169 195 233 264 355 281 246 14 337 277 273 280 235 205 212 200 191 196 198 188 183 185 192 203 219 236 266 287 289 295 301 307 319 328 334 336 335 334 332 331 331 330 329 329 328 326 325 324 324 323 323 322 322 322 322 323 323 323 323 323 323 322 322 322 321 320 320 319 319
112 59 321 24 57 348 250 143 91 59 266 258 268 278 278 287 284 254 237 244 252 261 254 273 307 291 282 301 286 259 250 246 232 221 210 197 187 185 189 199 212 229 247 265 279 288 295 298 300 312 324 328 330 330 328 327 326 326 325 324 324 324 323 322 321 320 320 319 319 318 318 319 319 320 320 320 320 320 320 320 319 319 318 317 316 316
62 113 134 176 301 306 303 273 222 250 274 273 266 265 268 265 264 263 260 255 253 255 263 281 284 278 281 290 287 294 294 276 264 243 205 177 176 190 197 204 213 229 252 262 272 287 296 295 298 310 322 326 327 327 326 324 323 322 321 320 320 320 319 318 317 317 316 316 315 315 315 315 316 316 317 317 318 318 318 318 318 317 316 315 314 313
17 103 128 132 309 316 333 320 275 259 275 281 273 261 254 254 257 258 257 256 257 263 270 274 276 280 285 282 326 7 18 360 336 314 160 158 175 195 205 210 212 222 242 255 268 284 289 291 300 312 321 326 327 327 326 324 322 322 320 319 318 317 316 316 316 314 313 313 312 312 311 311 311 312 313 314 315 315 316 316 316 316 315 314 313 311
24 94 130 80 92 273 322 326 290 289 291 280 273 264 244 233 239 240 238 239 237 251 267 269 269 278 287 105 34 9 29 13 352 20 151 196 196 196 208 212 209 214 226 244 265 279 285 292 306 317 323 326 326 327 325 323 322 321 320 318 318 317 316 315 314 312 311 311 310 309 309 308 308 308 308 309 310 311 312 313 314 314 313 313 312 310
38 76 119 97 134 251 278 273 274 314 322 281 262 254 224 211 220 226 230 235 231 237 252 256 259 276 294 120 293 292 245 238 254 242 252 242 197 190 204 206 202 213 227 246 263 272 282 298 310 318 323 325 325 325 324 322 322 320 319 319 319 318 317 315 313 311 310 309 309 308 307 306 306 305 305 305 305 306 307 308 310 310 310 310 310 309
62 2 21 111 111 250 249 254 299 357 328 258 260 274 186 178 209 231 245 252 251 257 267 273 282 300 302 294 294 288 195 196 205 202 239 254 198 189 203 210 214 226 240 254 263 271 286 303 313 318 322 323 323 323 323 322 321 319 319 320 319 319 318 316 314 312 310 309 308 308 307 306 305 303 302 302 302 302 302 304 305 305 306 307 307 306
109 43 3 129 111 257 254 303 16 328 235 227 271 278 125 91 236 256 272 271 266 269 274 279 283 282 284 291 359 97 107 152 216 243 261 264 235 208 208 220 231 242 250 255 264 282 297 306 312 317 320 321 321 321 321 320 318 318 319 319 320 319 319 317 315 313 312 310 309 308 307 306 305 303 302 301 300 300 299 300 301 301 302 302 302 303
122 93 295 199 153 302 313 104 219 264 269 272 260 234 203 205 246 258 271 260 250 256 260 262 264 265 276 317 86 89 19 315 294 291 284 269 250 228 216 225 243 254 253 256 272 290 301 307 311 315 317 318 318 318 317 316 317 317 317 319 320 319 318 318 316 314 313 313 312 311 310 309 307 305 304 302 301 299 299 298 298 298 299 298 298 299
172 225 345 128 164 129 97 246 255 301 318 319 289 146 111 112 129 102 275 257 253 272 270 263 272 274 271 99 94 340 338 341 313 300 267 244 240 233 228 234 247 253 253 266 284 294 301 305 309 313 314 314 315 315 313 314 314 314 315 318 319 318 318 317 314 313 314 314 314 314 314 313 311 309 308 306 304 302 301 300 298 298 298 297 296 296
241 257 71 88 134 115 99 301 309 322 304 243 139 84 76 80 76 61 334 271 252 258 258 254 273 287 225 125 139 326 25 13 317 251 204 221 239 243 239 238 244 255 266 281 291 295 300 303 305 308 308 309 311 311 311 311 311 311 313 315 316 316 316 314 312 313 314 314 315 316 316 315 314 312 311 310 308 307 306 305 303 302 300 299 297 295
8 347 43 85 300 134 132 219 249 259 254 196 145 123 110 102 75 42 345 297 278 248 242 226 212 11 120 141 165 141 96 290 283 231 209 225 241 236 233 239 254 271 279 285 291 296 299 301 302 303 304 307 309 309 309 309 309 309 311 312 312 313 312 310 310 313 315 315 317 317 316 315 314 313 313 311 311 310 309 307 306 305 304 302 300 298
31 354 168 183 236 228 200 214 231 251 254 179 137 142 134 111 72 45 326 279 285 77 106 101 72 152 161 176 178 168 203 236 258 265 246 242 242 235 243 261 276 286 291 293 295 297 298 298 299 301 304 307 308 307 307 306 306 307 309 309 310 311 309 307 310 314 314 315 318 318 317 316 315 314 313 312 312 311 310 309 309 307 306 305 303 302
16 248 192 194 232 228 221 239 260 258 243 180 147 148 140 105 70 67 246 231 182 156 158 148 284 253 207 202 199 210 241 249 260 270 263 253 251 253 263 278 287 294 297 297 296 296 295 297 299 302 306 309 307 306 305 304 304 306 307 308 310 309 306 306 310 312 313 315 317 318 318 318 316 315 314 314 314 313 311 312 312 311 310 309 307 306
178 209 192 196 220 224 228 245 284 287 261 174 146 144 136 105 116 209 204 164 152 208 233 221 242 249 235 230 228 235 250 258 265 270 265 259 261 266 276 286 293 296 297 296 296 297 297 299 301 304 307 309 307 305 304 303 304 305 305 307 309 307 305 307 310 311 312 315 317 317 318 318 316 316 316 316 316 314 313 314 315 314 313 312 310 308
167 158 193 203 187 174 218 243 274 289 233 140 131 132 150 172 197 180 155 183 234 252 253 243 252 259 254 253 254 253 259 266 271 273 273 271 273 277 284 290 294 295 296 297 298 299 300 301 303 305 307 308 306 304 304 303 303 303 305 308 308 305 305 307 309 310 313 316 316 316 317 316 316 316 316 317 317 315 314 315 316 315 314 314 312 310
180 173 187 202 178 154 174 201 208 241 182 161 154 168 209 207 219 237 253 264 263 261 264 264 267 269 266 269 270 265 265 270 273 274 275 277 280 285 288 291 293 294 295 297 298 300 301 302 304 306 307 307 305 303 303 303 302 302 305 308 307 305 305 308 310 311 314 315 315 316 316 315 315 316 316 316 316 315 314 316 316 315 315 315 314 312
234 192 153 197 211 185 222 234 217 157 171 181 190 215 217 214 230 249 260 267 269 270 273 272 269 270 271 275 274 266 263 268 271 273 275 277 282 286 289 291 293 294 296 298 299 300 301 302 303 305 305 306 305 303 302 302 301 303 306 308 306 305 306 309 311 313 315 316 316 316 315 315 315 316 316 316 316 315 315 316 316 315 316 316 315 314
242 124 106 144 281 299 283 265 249 241 228 215 220 238 247 247 254 262 268 272 273 273 273 270 270 273 273 273 271 266 264 267 270 272 275 277 281 284 287 290 292 294 297 298 299 299 300 301 303 304 305 307 305 302 302 301 301 304 306 307 306 306 307 310 312 314 315 316 316 316 316 316 316 317 316 315 315 314 315 316 316 315 316 316 316 314
226 177 169 211 284 330 291 266 236 239 245 237 237 247 254 261 265 269 274 276 277 278 277 275 277 279 277 276 274 271 271 271 271 272 275 277 280 283 285 288 291 294 297 299 299 299 300 302 304 304 305 308 307 303 301 301 301 303 305 307 306 306 307 311 312 313 315 316 316 317 317 316 316 316 316 316 317 317 316 317 317 316 316 318 318 315
186 171 183 215 208 213 254 270 274 273 267 263 262 262 263 267 270 273 276 278 279 281 282 283 284 282 281 281 279 276 277 276 275 275 277 279 282 284 287 290 292 295 297 298 298 299 300 302 303 304 305 308 309 305 301 300 301 303 304 305 305 305 308 311 311 312 315 317 317 317 317 315 316 317 319 320 321 319 318 319 319 318 317 320 320 316
135 156 177 187 213 253 274 273 271 276 277 272 267 266 266 269 271 270 272 275 277 280 282 284 285 284 283 283 282 280 280 279 278 279 279 280 282 285 288 290 292 294 296 297 298 299 301 302 302 303 305 308 308 304 300 299 301 303 304 304 304 305 309 311 310 311 315 316 316 317 316 316 319 323 323 322 320 318 318 320 322 322 321 323 323 319
146 181 180 153 232 259 260 252 241 248 274 271 262 263 265 264 263 263 267 272 276 278 282 283 283 283 282 281 281 281 281 281 282 280 280 281 283 285 288 290 291 292 294 295 297 298 299 300 301 302 305 308 307 303 301 300 302 305 305 303 303 307 310 310 310 312 315 317 317 318 318 319 323 324 322 320 319 319 319 320 323 326 327 326 324 320
200 212 189 181 218 234 233 237 227 224 253 269 271 273 271 266 265 267 272 278 280 281 284 284 283 284 283 282 282 280 280 281 281 279 280 282 284 285 288 289 289 290 292 293 295 297 297 298 300 302 305 307 306 302 300 301 304 307 304 302 304 308 309 309 310 313 317 319 319 320 321 322 323 322 320 321 323 324 324 324 325 328 330 328 325 322
Height
1473 1476 1476 1476 1474 1472 1470 1470 1470 1467 1466 1468 1470 1471 1470 1467 1466 1466 1467 1465 1465 1469 1470 1470 1469 1473 1481 1483 1483 1485 1485 1486 1489 1491 1493 1495 1497 1498 1499 1499 1499 1499 1499 1499 1498 1497 1496 1496 1495 1495 1494 1494 1493 1492 1492 1491 1490 1490 1489 1489 1488 1487 1487 1487 1488 1488 1489 1489 1489 1489 1488 1488 1489 1489 1488 1488 1488 1489 1491 1492 1490 1490 1492 1493 1495 1497
1473 1476 1473 1470 1469 1467 1466 1466 1466 1467 1467 1469 1471 1473 1472 1469 1469 1469 1468 1467 1467 1469 1470 1468 1467 1472 1481 1484 1484 1486 1487 1489 1491 1492 1494 1496 1498 1499 1500 1500 1500 1501 1500 1500 1499 1498 1497 1497 1496 1496 1495 1494 1494 1493 1493 1492 1492 1491 1490 1489 1488 1487 1487 1486 1487 1487 1488 1488 1488 1489 1489 1489 1490 1489 1488 1488 1488 1489 1491 1491 1491 1491 1492 1493 1493 1494
1475 1475 1470 1467 1466 1464 1464 1464 1465 1467 1468 1471 1472 1473 1475 1471 1469 1471 1469 1468 1468 1470 1471 1468 1469 1477 1483 1485 1487 1489 1490 1493 1493 1494 1496 1497 1499 1500 1501 1501 1501 1501 1501 1500 1500 1499 1498 1498 1497 1496 1495 1495 1495 1494 1494 1493 1493 1492 1491 1490 1489 1488 1487 1486 1486 1487 1487 1487 1487 1488 1489 1489 1490 1490 1489 1489 1488 1489 1490 1491 1491 1491 1491 1491 1491 1491
1475 1472 1469 1467 1466 1465 1465 1465 1467 1469 1470 1473 1474 1475 1475 1471 1470 1472 1472 1471 1470 1471 1473 1471 1473 1481 1488 1488 1490 1492 1493 1495 1496 1496 1498 1498 1500 1501 1502 1503 1502 1502 1502 1501 1501 1500 1499 1499 1498 1497 1497 1496 1496 1495 1494 1494 1493 1493 1491 1491 1490 1489 1488 1487 1486 1487 1487 1487 1486 1487 1488 1488 1489 1490 1490 1490 1490 1490 1491 1491 1491 1489 1489 1490 1491 1491
1471 1470 1469 1468 1467 1467 1468 1469 1470 1472 1474 1474 1474 1475 1474 1471 1471 1472 1473 1474 1472 1472 1473 1474 1476 1479 1485 1488 1491 1494 1495 1496 1498 1498 1500 1501 1502 1503 1503 1504 1504 1504 1503 1503 1502 1501 1500 1500 1499 1499 1498 1497 1497 1496 1495 1494 1494 1493 1492 1492 1491 1490 1489 1488 1487 1487 1487 1487 1487 1487 1487 1488 1488 1488 1489 1490 1490 1489 1490 1490 1490 1489 1489 1490 1491 1492
1470 1470 1470 1470 1470 1469 1471 1473 1471 1473 1477 1475 1472 1473 1472 1471 1472 1474 1475 1475 1477 1477 1473 1475 1479 1475 1478 1487 1491 1494 1496 1496 1499 1500 1501 1503 1503 1505 1505 1505 1506 1505 1505 1505 1504 1503 1502 1501 1501 1500 1499 1499 1497 1497 1496 1496 1495 1494 1494 1493 1492 1491 1490 1489 1488 1487 1487 1487 1487 1487 1487 1488 1488 1488 1488 1489 1489 1488 1488 1488 1489 1489 1490 1490 1490 1491
1471 1472 1472 1472 1473 1473 1474 1474 1473 1474 1476 1476 1474 1473 1471 1469 1471 1474 1475 1477 1479 1477 1470 1472 1477 1473 1476 1488 1492 1494 1496 1497 1500 1502 1503 1505 1505 1506 1507 1507 1508 1507 1507 1507 1505 1505 1504 1503 1502 1501 1501 1500 1499 1498 1498 1497 1497 1496 1495 1494 1493 1492 1491 1490 1490 1489 1488 1488 1488 1488 1488 1488 1488 1488 1488 1488 1488 1488 1488 1488 1488 1488 1489 1490 1490 1491
1475 1473 1474 1474 1475 1476 1476 1477 1477 1477 1477 1477 1477 1474 1472 1471 1472 1473 1474 1477 1477 1474 1473 1471 1473 1473 1474 1486 1493 1493 1497 1499 1501 1504 1505 1506 1507 1508 1509 1509 1509 1510 1509 1508 1507 1506 1506 1505 1504 1503 1503 1502 1501 1500 1500 1498 1498 1497 1496 1495 1494 1493 1492 1491 1491 1490 1489 1489 1488 1488 1488 1488 1488 1489 1488 1489 1489 1488 1488 1488 1487 1487 1487 1487 1488 1489
1478 1478 1478 1477 1476 1477 1479 1480 1480 1479 1478 1479 1479 1476 1475 1474 1475 1474 1475 1478 1476 1477 1480 1472 1473 1478 1473 1484 1496 1493 1495 1500 1501 1505 1506 1507 1509 1509 1510 1511 1511 1511 1511 1510 1509 1508 1508 1507 1506 1505 1505 1504 1503 1502 1501 1500 1499 1498 1497 1496 1495 1494 1493 1492 1492 1491 1490 1490 1489 1489 1489 1488 1489 1489 1489 1489 1489 1489 1488 1487 1487 1487 1486 1486 1486 1487
1480 1481 1481 1480 1481 1482 1482 1483 1480 1480 1480 1479 1479 1477 1476 1476 1476 1477 1477 1478 1479 1483 1483 1472 1473 1479 1474 1484 1497 1494 1495 1497 1499 1506 1508 1508 1511 1511 1512 1513 1513 1513 1512 1512 1511 1510 1510 1509 1508 1507 1506 1505 1504 1503 1502 1501 1500 1499 1498 1497 1496 1495 1494 1494 1493 1492 1492 1491 1491 1490 1489 1489 1489 1489 1489 1489 1489 1488 1488 1487 1486 1486 1486 1486 1486 1486
1481 1482 1481 1482 1486 1485 1483 1481 1479 1480 1480 1478 1479 1479 1480 1479 1477 1479 1478 1479 1485 1485 1478 1469 1470 1476 1476 1484 1496 1499 1499 1496 1497 1506 1509 1510 1512 1512 1514 1514 1514 1514 1514 1513 1512 1512 1511 1510 1510 1508 1508 1507 1506 1505 1504 1503 1502 1500 1499 1498 1497 1497 1496 1495 1494 1493 1493 1492 1492 1491 1490 1490 1489 1489 1489 1489 1488 1488 1487 1486 1486 1486 1485 1486 1486 1486
1482 1483 1484 1486 1487 1484 1483 1481 1478 1480 1479 1479 1481 1481 1485 1482 1480 1485 1482 1483 1492 1484 1471 1466 1468 1472 1474 1484 1500 1506 1504 1499 1500 1506 1509 1511 1513 1514 1515 1515 1516 1516 1515 1515 1514 1513 1512 1511 1511 1509 1509 1508 1507 1506 1505 1504 1503 1502 1501 1500 1499 1499 1498 1497 1496 1495 1494 1493 1493 1492 1491 1491 1490 1490 1490 1489 1489 1488 1487 1487 1486 1486 1485 1485 1485 1485
1486 1488 1488 1487 1487 1486 1485 1482 1479 1480 1480 1481 1481 1483 1489 1487 1489 1496 1491 1489 1489 1477 1469 1467 1466 1470 1478 1495 1508 1509 1508 1506 1506 1508 1510 1512 1514 1515 1517 1516 1517 1517 1516 1516 1515 1514 1514 1512 1512 1511 1510 1509 1508 1507 1506 1505 1505 1503 1503 1502 1501 1500 1499 1499 1498 1497 1496 1495 1494 1494 1493 1492 1492 1492 1491 1490 1490 1489 1488 1487 1486 1486 1485 1485 1485 1484
1487 1491 1490 1489 1488 1489 1489 1486 1485 1486 1485 1484 1482 1484 1490 1489 1493 1494 1486 1485 1483 1474 1472 1469 1468 1471 1481 1503 1514 1509 1511 1512 1510 1512 1512 1514 1515 1516 1517 1517 1518 1518 1517 1517 1516 1515 1515 1514 1514 1512 1511 1511 1510 1509 1508 1507 1506 1505 1504 1503 1502 1502 1501 1500 1500 1499 1498 1497 1496 1496 1495 1494 1493 1493 1493 1492 1491 1490 1489 1488 1487 1486 1486 1485 1485 1484
1487 1490 1493 1494 1493 1492 1491 1492 1493 1493 1491 1487 1483 1485 1488 1488 1492 1488 1479 1485 1485 1478 1475 1471 1472 1475 1481 1503 1515 1511 1514 1514 1513 1516 1515 1516 1518 1517 1519 1519 1519 1519 1519 1519 1518 1517 1517 1516 1515 1514 1513 1513 1511 1511 1510 1509 1508 1507 1506 1505 1504 1503 1503 1502 1501 1500 1499 1498 1498 1497 1496 1496 1495 1494 1494 1493 1493 1492 1491 1490 1489 1488 1487 1486 1485 1485
1487 1492 1498 1496 1495 1495 1494 1494 1494 1493 1492 1488 1483 1485 1489 1491 1494 1490 1484 1488 1487 1485 1483 1474 1481 1495 1501 1511 1516 1513 1515 1516 1515 1517 1516 1518 1519 1518 1520 1520 1520 1521 1520 1520 1519 1518 1518 1517 1516 1516 1515 1514 1513 1512 1511 1510 1510 1509 1508 1507 1506 1505 1504 1504 1503 1502 1501 1500 1499 1499 1498 1497 1497 1496 1496 1495 1494 1493 1492 1491 1490 1489 1488 1487 1487 1486
1492 1496 1499 1497 1496 1496 1495 1495 1494 1494 1493 1489 1488 1489 1493 1494 1495 1493 1487 1483 1484 1490 1485 1470 1480 1504 1510 1510 1515 1514 1515 1517 1517 1517 1518 1519 1520 1520 1521 1521 1522 1522 1521 1521 1520 1519 1519 1518 1517 1517 1516 1515 1514 1514 1513 1512 1511 1510 1509 1509 1508 1507 1506 1505 1505 1504 1503 1502 1501 1500 1500 1499 1498 1498 1497 1496 1495 1494 1493 1492 1491 1490 1489 1489 1488 1487
1503 1501 1499 1498 1498 1496 1496 1497 1495 1496 1495 1494 1495 1494 1493 1492 1492 1494 1491 1486 1488 1488 1477 1463 1470 1489 1494 1499 1515 1518 1515 1517 1518 1518 1519 1520 1521 1522 1522 1523 1523 1523 1523 1522 1522 1521 1520 1519 1519 1518 1517 1517 1516 1515 1514 1513 1512 1512 1511 1510 1509 1508 1507 1506 1506 1505 1504 1503 1503 1502 1501 1500 1499 1499 1498 1497 1496 1495 1494 1493 1492 1491 1490 1490 1489 1488
1508 1504 1500 1499 1499 1496 1497 1497 1497 1499 1497 1498 1500 1496 1495 1497 1495 1494 1492 1493 1495 1486 1475 1464 1459 1476 1492 1502 1515 1516 1513 1517 1519 1518 1520 1520 1522 1523 1523 1525 1524 1524 1524 1523 1522 1522 1521 1520 1520 1519 1518 1518 1517 1516 1515 1514 1514 1513 1512 1511 1510 1509 1508 1507 1507 1506 1505 1504 1503 1502 1502 1501 1500 1499 1498 1497 1496 1495 1494 1493 1492 1492 1491 1490 1489 1488
1508 1505 1503 1501 1498 1496 1499 1503 1508 1510 1504 1500 1501 1500 1501 1503 1501 1499 1496 1498 1499 1489 1483 1471 1460 1483 1510 1510 1509 1511 1511 1516 1518 1518 1521 1521 1522 1524 1523 1525 1524 1524 1524 1523 1523 1523 1521 1521 1521 1520 1519 1518 1518 1517 1516 1515 1514 1513 1512 1511 1511 1510 1509 1508 1507 1506 1505 1504 1504 1503 1502 1501 1500 1499 1498 1497 1496 1495 1494 1493 1493 1492 1491 1490 1490 1489
1509 1505 1505 1502 1497 1500 1509 1516 1518 1519 1515 1509 1509 1511 1512 1508 1503 1504 1499 1497 1499 1493 1490 1482 1472 1495 1518 1513 1508 1510 1510 1515 1517 1518 1521 1522 1523 1524 1523 1525 1524 1524 1524 1523 1523 1523 1522 1522 1521 1521 1520 1519 1519 1518 1516 1516 1514 1513 1513 1511 1511 1510 1509 1508 1507 1506 1505 1504 1504 1503 1502 1501 1500 1499 1499 1497 1497 1496 1495 1494 1493 1492 1491 1490 1490 1489
1514 1512 1513 1508 1505 1512 1521 1522 1519 1520 1519 1517 1518 1519 1521 1517 1512 1509 1501 1502 1508 1504 1501 1499 1490 1501 1518 1515 1512 1511 1510 1514 1516 1517 1522 1522 1523 1524 1524 1525 1524 1524 1524 1523 1523 1523 1522 1522 1521 1521 1521 1519 1519 1518 1517 1516 1515 1514 1513 1511 1511 1510 1508 1508 1506 1506 1505 1504 1503 1502 1501 1501 1500 1499 1499 1498 1497 1496 1495 1494 1493 1492 1491 1490 1490 1489
1520 1520 1518 1514 1514 1519 1522 1521 1521 1522 1520 1520 1524 1524 1524 1524 1522 1520 1514 1518 1525 1515 1510 1512 1502 1507 1520 1517 1513 1513 1513 1515 1516 1518 1521 1522 1524 1525 1524 1525 1525 1524 1524 1523 1524 1523 1522 1523 1522 1521 1521 1520 1519 1518 1517 1516 1515 1514 1513 1512 1511 1510 1509 1508 1507 1506 1505 1504 1503 1502 1501 1501 1499 1499 1498 1497 1496 1495 1495 1494 1493 1492 1491 1490 1490 1489
1520 1520 1517 1514 1518 1523 1524 1522 1522 1522 1521 1523 1527 1527 1529 1530 1531 1532 1529 1532 1534 1520 1514 1514 1504 1508 1522 1519 1515 1516 1516 1517 1519 1519 1521 1522 1524 1524 1524 1525 1524 1524 1524 1524 1524 1523 1523 1523 1522 1521 1521 1520 1519 1518 1517 1516 1515 1514 1513 1512 1511 1510 1509 1508 1506 1506 1504 1503 1503 1501 1500 1500 1499 1498 1497 1496 1495 1494 1494 1493 1492 1491 1490 1490 1489 1488
1521 1520 1518 1514 1517 1522 1523 1523 1524 1524 1525 1528 1530 1531 1533 1532 1533 1534 1532 1534 1533 1520 1515 1515 1506 1511 1523 1519 1517 1519 1518 1519 1521 1521 1522 1523 1523 1524 1524 1524 1524 1524 1524 1524 1523 1523 1523 1522 1522 1521 1521 1520 1519 1518 1517 1516 1515 1514 1513 1512 1511 1510 1509 1507 1506 1505 1504 1503 1502 1500 1499 1498 1497 1496 1495 1495 1494 1493 1492 1491 1490 1490 1489 1488 1487 1487
1524 1523 1523 1519 1513 1512 1515 1523 1530 1532 1531 1531 1531 1532 1533 1532 1533 1533 1532 1534 1531 1522 1520 1517 1510 1517 1525 1521 1519 1521 1520 1521 1522 1522 1523 1523 1523 1524 1524 1524 1524 1524 1523 1523 1523 1523 1522 1522 1522 1521 1521 1520 1519 1518 1517 1516 1515 1514 1513 1512 1511 1509 1508 1507 1506 1504 1503 1502 1501 1499 1498 1497 1496 1495 1494 1493 1492 1491 1490 1490 1489 1488 1487 1486 1485 1485
1525 1527 1532 1530 1524 1523 1527 1533 1536 1536 1536 1535 1533 1533 1532 1532 1532 1534 1536 1537 1534 1532 1530 1523 1518 1522 1525 1523 1522 1521 1520 1521 1521 1522 1522 1522 1523 1523 1523 1523 1523 1523 1523 1523 1522 1522 1522 1522 1521 1521 1520 1520 1519 1518 1517 1516 1515 1514 1513 1511 1510 1509 1508 1507 1505 1504 1502 1501 1499 1498 1497 1496 1495 1493 1492 1491 1490 1489 1489 1488 1487 1486 1485 1484 1483 1483
1525 1529 1536 1537 1535 1537 1539 1539 1539 1539 1539 1538 1536 1535 1534 1532 1532 1535 1537 1535 1534 1536 1531 1523 1524 1527 1524 1523 1523 1521 1520 1520 1520 1520 1520 1520 1521 1521 1521 1522 1522 1522 1522 1522 1522 1522 1521 1521 1521 1521 1520 1519 1519 1518 1517 1516 1515 1513 1512 1511 1509 1508 1507 1506 1504 1503 1502 1500 1499 1497 1496 1495 1493 1492 1491 1490 1489 1488 1487 1486 1485 1484 1483 1482 1481 1481
1528 1530 1538 1539 1537 1539 1540 1539 1540 1540 1539 1538 1537 1536 1536 1535 1534 1535 1535 1533 1534 1535 1528 1523 1526 1526 1523 1523 1521 1519 1519 1518 1517 1517 1517 1518 1519 1520 1521 1521 1521 1522 1522 1521 1522 1521 1521 1521 1520 1520 1520 1519 1518 1518 1516 1515 1514 1513 1512 1510 1509 1507 1506 1504 1503 1502 1500 1499 1498 1496 1495 1493 1492 1491 1489 1488 1487 1486 1485 1484 1483 1482 1481 1480 1479 1478
1530 1533 1540 1540 1538 1538 1539 1538 1539 1540 1539 1538 1537 1536 1536 1536 1535 1535 1534 1532 1531 1530 1527 1525 1525 1522 1521 1521 1519 1517 1517 1516 1515 1515 1515 1517 1519 1520 1520 1521 1521 1521 1521 1521 1521 1520 1520 1520 1520 1519 1519 1518 1518 1517 1516 1514 1513 1512 1511 1510 1508 1507 1505 1504 1502 1501 1499 1498 1496 1495 1493 1492 1491 1489 1488 1486 1485 1484 1483 1482 1481 1480 1479 1478 1477 1476
1532 1534 1538 1540 1538 1539 1541 1541 1539 1539 1539 1538 1537 1536 1536 1536 1535 1535 1533 1532 1531 1529 1526 1526 1524 1521 1518 1518 1517 1516 1515 1515 1515 1515 1515 1517 1518 1519 1520 1521 1521 1521 1521 1520 1520 1520 1519 1519 1519 1519 1518 1517 1517 1516 1514 1513 1512 1511 1510 1509 1507 1506 1504 1503 1501 1500 1498 1497 1495 1494 1492 1491 1489 1488 1486 1485 1483 1482 1481 1479 1478 1477 1476 1475 1474 1474
1534 1535 1537 1539 1537 1538 1544 1544 1539 1539 1541 1540 1537 1533 1533 1535 1533 1531 1530 1528 1529 1528 1526 1526 1524 1520 1517 1516 1516 1516 1515 1516 1516 1516 1516 1517 1518 1519 1520 1520 1520 1520 1520 1520 1519 1519 1519 1518 1518 1518 1517 1516 1515 1514 1513 1512 1511 1510 1508 1507 1506 1504 1503 1501 1500 1498 1497 1495 1494 1492 1491 1489 1488 1486 1485 1483 1482 1480 1479 1477 1476 1474 1473 1472 1471 1470
1538 1537 1536 1537 1535 1537 1544 1545 1543 1542 1535 1528 1525 1524 1524 1528 1528 1526 1526 1524 1523 1524 1524 1523 1521 1517 1515 1516 1515 1515 1515 1515 1515 1516 1516 1516 1516 1517 1518 1519 1519 1519 1519 1519 1518 1518 1518 1517 1517 1516 1515 1515 1514 1513 1512 1510 1509 1508 1506 1505 1504 1502 1501 1500 1498 1497 1495 1494 1492 1490 1489 1487 1486 1485 1483 1482 1480 1479 1477 1476 1474 1472 1471 1469 1468 1466
1539 1538 1536 1536 1536 1537 1541 1545 1543 1532 1516 1512 1517 1517 1516 1520 1522 1522 1522 1520 1519 1519 1518 1517 1515 1514 1515 1514 1514 1514 1514 1514 1515 1514 1515 1515 1515 1516 1517 1517 1517 1517 1517 1517 1517 1517 1516 1516 1515 1515 1514 1513 1512 1511 1509 1508 1507 1505 1504 1503 1502 1500 1499 1497 1496 1495 1493 1492 1490 1488 1487 1485 1484 1483 1481 1480 1478 1477 1476 1474 1473 1471 1469 1467 1466 1464
1539 1539 1537 1538 1539 1537 1539 1541 1530 1513 1508 1515 1519 1516 1515 1517 1518 1520 1520 1519 1518 1517 1516 1515 1514 1514 1514 1513 1513 1513 1513 1514 1514 1514 1514 1515 1515 1515 1515 1516 1516 1516 1516 1516 1515 1515 1515 1514 1514 1513 1512 1511 1510 1508 1507 1505 1504 1502 1501 1500 1499 1498 1497 1495 1493 1492 1490 1489 1488 1486 1485 1483 1482 1480 1479 1478 1476 1475 1474 1472 1471 1469 1468 1466 1464 1463
1540 1540 1537 1539 1539 1536 1537 1534 1517 1506 1512 1518 1515 1513 1516 1517 1517 1520 1521 1517 1516 1515 1515 1514 1513 1512 1512 1513 1513 1513 1514 1514 1514 1513 1514 1514 1513 1514 1514 1514 1514 1514 1514 1514 1514 1514 1513 1512 1512 1511 1510 1509 1508 1506 1504 1503 1501 1499 1498 1497 1496 1495 1493 1492 1491 1489 1488 1486 1485 1484 1482 1481 1479 1478 1476 1475 1474 1472 1471 1470 1469 1467 1465 1464 1462 1461
1539 1540 1540 1539 1536 1534 1535 1533 1524 1517 1517 1516 1514 1514 1515 1516 1517 1521 1521 1517 1513 1513 1513 1511 1511 1511 1511 1512 1513 1513 1513 1513 1513 1512 1512 1511 1511 1512 1513 1513 1513 1513 1513 1513 1513 1512 1511 1510 1510 1509 1508 1507 1506 1504 1502 1500 1499 1497 1496 1495 1493 1492 1490 1489 1487 1486 1485 1484 1482 1481 1479 1478 1476 1475 1473 1472 1471 1470 1469 1467 1466 1465 1463 1461 1460 1458
1538 1539 1541 1538 1535 1535 1537 1535 1529 1520 1513 1514 1517 1516 1515 1517 1518 1519 1522 1518 1511 1509 1510 1509 1510 1510 1510 1511 1512 1512 1513 1513 1512 1511 1511 1510 1510 1511 1512 1512 1512 1512 1512 1512 1511 1510 1510 1509 1508 1507 1506 1505 1503 1501 1500 1498 1497 1495 1493 1492 1491 1489 1488 1486 1484 1483 1482 1481 1480 1478 1477 1475 1474 1472 1470 1469 1468 1466 1465 1464 1463 1462 1460 1458 1457 1455
1540 1540 1542 1541 1538 1538 1538 1534 1529 1521 1513 1513 1516 1515 1516 1518 1518 1520 1520 1514 1509 1507 1508 1508 1509 1509 1509 1511 1511 1511 1513 1513 1512 1510 1510 1510 1510 1510 1511 1510 1511 1510 1510 1510 1509 1508 1507 1506 1506 1505 1504 1503 1501 1499 1497 1495 1494 1492 1491 1490 1488 1487 1485 1483 1481 1480 1479 1478 1477 1476 1474 1473 1471 1469 1468 1466 1465 1463 1462 1460 1459 1458 1456 1455 1453 1451
1543 1541 1542 1543 1540 1539 1538 1534 1530 1523 1515 1512 1513 1515 1517 1517 1519 1520 1514 1507 1508 1509 1507 1508 1509 1509 1509 1510 1510 1511 1512 1511 1510 1509 1509 1509 1509 1509 1509 1509 1509 1509 1508 1507 1507 1506 1505 1504 1503 1502 1501 1500 1498 1496 1494 1492 1491 1490 1489 1487 1486 1485 1482 1480 1479 1478 1476 1475 1474 1473 1471 1470 1468 1466 1465 1463 1462 1460 1459 1457 1456 1454 1452 1451 1449 1447
1544 1543 1542 1540 1539 1538 1536 1532 1528 1521 1512 1509 1512 1514 1515 1517 1520 1518 1508 1505 1509 1509 1508 1509 1509 1509 1509 1509 1509 1510 1510 1508 1508 1507 1507 1508 1507 1507 1507 1507 1507 1506 1505 1505 1504 1503 1502 1501 1500 1499 1498 1497 1495 1493 1491 1489 1488 1487 1486 1485 1483 1482 1479 1478 1477 1475 1474 1472 1471 1470 1468 1467 1465 1463 1462 1460 1459 1457 1455 1454 1452 1450 1449 1447 1445 1443
1539 1540 1539 1538 1538 1536 1533 1531 1528 1518 1508 1506 1510 1513 1515 1517 1516 1511 1507 1507 1508 1508 1508 1509 1508 1508 1509 1508 1508 1508 1507 1507 1507 1506 1506 1506 1505 1505 1505 1504 1504 1503 1503 1502 1501 1499 1498 1497 1497 1496 1495 1494 1492 1490 1488 1486 1485 1484 1482 1481 1480 1479 1477 1475 1474 1473 1471 1470 1468 1467 1465 1464 1462 1461 1459 1457 1456 1453 1452 1451 1449 1447 1445 1443 1441 1438
1531 1532 1532 1533 1533 1533 1534 1531 1521 1509 1503 1505 1508 1512 1515 1513 1508 1505 1505 1506 1506 1507 1508 1507 1507 1508 1507 1506 1507 1506 1505 1505 1505 1504 1504 1504 1503 1503 1502 1502 1501 1501 1499 1499 1497 1496 1495 1493 1493 1492 1491 1490 1488 1486 1485 1483 1482 1480 1480 1479 1478 1476 1474 1473 1472 1470 1469 1468 1466 1465 1463 1461 1460 1458 1456 1455 1453 1450 1448 1447 1446 1444 1442 1440 1437 1434
1525 1523 1523 1524 1523 1524 1526 1520 1507 1499 1501 1504 1504 1505 1507 1505 1503 1503 1504 1505 1505 1505 1506 1506 1506 1506 1505 1505 1505 1504 1504 1504 1503 1502 1502 1501 1500 1500 1499 1499 1499 1498 1497 1496 1494 1493 1491 1490 1489 1489 1488 1487 1485 1483 1482 1481 1478 1477 1477 1476 1475 1473 1471 1470 1469 1467 1466 1465 1463 1462 1461 1459 1457 1456 1454 1452 1450 1448 1445 1444 1442 1440 1438 1436 1434 1431
1517 1516 1517 1517 1515 1513 1512 1507 1501 1500 1502 1502 1500 1501 1502 1501 1502 1502 1502 1503 1503 1503 1503 1503 1503 1503 1504 1503 1502 1502 1502 1501 1500 1500 1499 1498 1498 1497 1496 1496 1495 1494 1494 1493 1491 1490 1488 1487 1486 1485 1485 1484 1483 1481 1480 1478 1476 1475 1474 1473 1472 1470 1468 1467 1466 1465 1464 1462 1461 1459 1458 1456 1455 1453 1452 1450 1448 1445 1443 1441 1439 1436 1435 1433 1430 1428
1514 1516 1517 1515 1514 1510 1503 1498 1499 1500 1500 1500 1500 1500 1500 1500 1501 1501 1501 1501 1501 1501 1501 1501 1500 1500 1501 1500 1500 1500 1499 1499 1498 1497 1496 1496 1496 1495 1494 1493 1492 1491 1490 1489 1488 1487 1485 1484 1483 1482 1481 1481 1480 1478 1477 1476 1474 1472 1471 1470 1469 1467 1466 1464 1463 1462 1461 1459 1458 1457 1455 1453 1451 1450 1449 1447 1446 1443 1441 1439 1436 1434 1432 1430 1427 1425
1514 1515 1515 1514 1515 1511 1502 1494 1495 1497 1497 1498 1499 1498 1498 1499 1499 1498 1498 1498 1498 1498 1498 1498 1498 1498 1497 1497 1497 1496 1496 1496 1495 1494 1494 1493 1492 1492 1491 1490 1489 1488 1487 1486 1485 1484 1482 1481 1480 1479 1478 1478 1477 1476 1474 1473 1472 1470 1469 1468 1466 1465 1463 1462 1460 1459 1458 1457 1455 1454 1452 1450 1449 1447 1446 1444 1442 1440 1438 1437 1434 1431 1429 1427 1424 1422
1511 1513 1514 1513 1512 1509 1500 1494 1494 1496 1495 1496 1496 1495 1496 1496 1496 1496 1496 1495 1495 1496 1495 1495 1495 1495 1494 1494 1494 1493 1493 1493 1492 1491 1491 1490 1489 1489 1488 1487 1486 1485 1484 1483 1482 1481 1479 1478 1477 1476 1475 1475 1474 1473 1472 1471 1470 1468 1467 1465 1464 1462 1461 1460 1458 1456 1455 1454 1453 1451 1450 1448 1446 1444 1442 1440 1439 1437 1435 1433 1431 1429 1426 1425 1422 1418
1510 1512 1510 1508 1509 1507 1499 1493 1493 1494 1493 1492 1492 1492 1493 1493 1493 1493 1493 1493 1493 1493 1492 1492 1492 1492 1491 1491 1490 1490 1489 1489 1489 1488 1487 1486 1486 1486 1485 1484 1483 1482 1481 1480 1479 1478 1477 1476 1475 1474 1473 1472 1472 1471 1469 1468 1468 1466 1465 1463 1461 1460 1458 1457 1456 1454 1453 1452 1450 1449 1447 1445 1443 1441 1439 1437 1436 1434 1433 1431 1428 1425 1422 1421 1420 1417
1508 1507 1505 1506 1507 1502 1493 1489 1490 1491 1489 1488 1489 1489 1490 1491 1491 1490 1490 1491 1490 1490 1490 1490 1489 1488 1488 1488 1487 1487 1486 1485 1486 1485 1484 1483 1483 1482 1482 1481 1480 1479 1478 1477 1476 1475 1474 1473 1472 1471 1470 1470 1469 1468 1467 1466 1465 1464 1463 1461 1459 1458 1456 1454 1453 1452 1451 1450 1448 1447 1445 1443 1441 1439 1437 1435 1433 1431 1429 1427 1426 1424 1420 1417 1415 1414
1498 1496 1497 1499 1497 1490 1486 1485 1487 1488 1487 1486 1487 1487 1488 1488 1488 1488 1488 1488 1487 1487 1487 1486 1485 1485 1485 1484 1484 1484 1483 1482 1482 1481 1481 1480 1480 1479 1479 1478 1477 1476 1475 1475 1474 1473 1472 1470 1469 1469 1468 1467 1466 1465 1464 1463 1462 1462 1460 1458 1457 1456 1454 1452 1451 1449 1449 1447 1446 1444 1443 1440 1438 1437 1435 1433 1431 1427 1424 1422 1420 1420 1418 1415 1412 1410